STARLINK-32378, 61064

Orbit data source: Space-Track

STARLINK-32378, 61064 is a payload satellite owned by SpaceX/Seattle (US) in LEO that was launched on Fri, 13 Sep 2024 UTC via an FALCON 9 launch vehicle from the Air Force Western Test Range (AFWTR). Payload-class satellites include a variety of spacecraft equipped with specific instruments for various scientific and technological missions. These include communications satellites like Starlink; space stations such as the ISS; scientific satellites like the Hubble; Earth observation satellites from companies like Planet Labs, Umbra, and HawkEye 360; GPS; miniature CubeSats for education and research; and military/defense satellites.

Loading next visibility...
Identifier
61064, 2024-164Q
Orbit
LEO
Country
Flag of USUS
Related business
Manufacturer
SpaceX/Seattle
Mission
Operational Commercial Communications
Bus & Motor
STARLINK V2M, Unknown motor
Mass
730 kg wet, ~700 kg dry
Launch date (UTC)
2024-09-13 (2 years ago)
Launch vehicle
FALCON 9
Launch site
Air Force Western Test Range (AFWTR)
Object type
Payload
Rocket body
Debris
Shape & HBR
Box + 2 Pan, 17.7 m
Radar Cross Section
33.884 m², Large (>1 m²)

Expand to show TLE details & history
Last TLE update: 10 hours ago

TLE from 10 hours ago
0 STARLINK-32378
1 61064U 24164Q   26171.43446453 -.00000265  00000-0  32164-5 0  9999
2 61064  53.1621 333.5035 0001273  93.8416 266.2731 15.31698643 99217
Epoch: 2026-06-20T10:25Z
TLE epoch observation values (Epoch: 2026-06-20T10:25:37.735Z)
Latitude
-0.00002°
Longitude
-91.55288°
Altitude
471.701 km
Speed
7.631 km/s
True Right ascension
22h 14m 00s
True Declination
0° 00' 00"
Sunlit
Object was in full shadow at epoch
Visualization orbit readout
Latitude
Unknown
Longitude
Unknown
Altitude
Unknown
Speed
Unknown
Apparent Right ascension
Unknown
Apparent Declination
Unknown
Sunlit
N/A
Visualization observer readout
Local Sidereal Time
07:17:22
Azimuth
Unknown
Elevation
Unknown
Doppler factor
Unknown
Orbital elements
Apogee altitude
471.872 km
Perigee altitude
470.128 km
Semi-major axis
6,849.137 km
Eccentricity
0.00013
Inclination
53.1621°
RAAN
333.5035°
Arg. of periapsis
93.8416°
True anomaly
266.25854°
Mean anomaly
266.2731°
Eccentric anomaly
266.26582°
Mean motion
3.82904 °/min
Orbital period
94.02 mins
BSTAR
0.0000032164
Loading maneuver chart data...
Computing Atmospheric mass density...
Loading historical data...
Loading historical data...
Loading historical data...
Loading historical data...
Loading historical data...
Loading historical data...
Loading historical data...

Documentation

Showing up to 5 results
|